DW2373 Thessaloniki GR current weather conditions

sailwx.info

Wind from 045

Air temperature 25.6° C
Dewpoint 15.3° C

Last reported at 2014-Sep-16 18:03 UTC.
Time now 2014-Sep-16 19:31 UTC

Location: N 40°31' E 022°58'.
View on Google Maps.

See reports from other nearby stations

  
Tides and Currents Weather Stations Pressure Air Temp Water Temp Dewpoint Dewpoint Depression Visibility Wind Speed Wind Dir Waves Ship Positions
date/time (UTC)wind fromknots sea level pressurealtimeterstation pressurevisibilityair tempwater tempwave heightnotes
2014-Sep-16 18:03 045 25.6
2014-Sep-16 17:03 25.6
2014-Sep-16 16:03 315 25.6
2014-Sep-16 15:03 109 25.6
2014-Sep-16 14:03 056 1 gusting 14 25.6
2014-Sep-16 13:03 236 4 gusting 8 25.6
2014-Sep-16 12:03 164 4 gusting 11 25.6
2014-Sep-16 11:03 157 4 gusting 11 25.6
2014-Sep-16 10:03 347 0 gusting 4 25.6
2014-Sep-16 09:03 263 25.6
2014-Sep-16 08:03 084 25.6
2014-Sep-16 07:03 212 25.6
2014-Sep-16 06:03 25.6
2014-Sep-16 05:03 265 0 gusting 6 25.6
2014-Sep-16 04:03 322 25.6
2014-Sep-16 03:03 243 25.6
2014-Sep-16 02:03 042 2 gusting 4 25.6
2014-Sep-16 01:03 333 25.6
2014-Sep-16 00:03 094 0 gusting 2 25.6
2014-Sep-15 23:03 135 25.6
2014-Sep-15 22:03 053 25.6
2014-Sep-15 21:03 316 0 gusting 7 25.6
2014-Sep-15 20:03 229 0 gusting 6 25.6
2014-Sep-15 19:03 006 4 gusting 6 25.6
2014-Sep-15 18:03 068 0 gusting 4 25.6
2014-Sep-15 17:03 068 1 gusting 5 25.6
2014-Sep-15 16:03 045 0 gusting 6 25.6
2014-Sep-15 15:03 045 2 gusting 2 25.6
2014-Sep-15 14:03 045 2 gusting 11 25.6
2014-Sep-15 13:03 315 2 gusting 6 25.6
2014-Sep-15 12:03 230 2 gusting 6 25.6
2014-Sep-15 11:03 335 2 gusting 5 25.6
2014-Sep-15 10:03 282 25.6
2014-Sep-15 09:03 256 1 gusting 4 25.6
2014-Sep-15 08:03 213 1 gusting 4 25.6
2014-Sep-15 07:03 225 25.6
2014-Sep-15 06:03 100 0 gusting 4 25.6
2014-Sep-15 05:03 187 1 gusting 4 25.6
2014-Sep-15 04:03 150 1 gusting 5 25.6
2014-Sep-15 03:03 181 2 gusting 5 25.6
2014-Sep-15 02:03 148 0 gusting 1 25.6
2014-Sep-15 01:03 298 0 gusting 5 25.6
2014-Sep-15 00:03 041 4 gusting 6 25.6
2014-Sep-14 23:03 021 1 gusting 11 25.6
2014-Sep-14 22:03 045 5 gusting 6 25.6
2014-Sep-14 21:03 073 0 gusting 4 25.6
2014-Sep-14 20:03 027 25.6
2014-Sep-14 19:03 147 2 gusting 6 25.6